Location: Ch�teau-Arnoux
(44.0814°N, 6.0027°E)
Time: 08:04:39
(UTC+00:00)

Cosmos 2298 Rocket - Pass Details

Date: 15 November 2019
Orbit: 777 x 783 km, 74.0° (Epoch: 11 December)

Event Time Altitude Azimuth Distance (km) Brightness Sun altitude
Rises 05:43:38 0° 209° (SSW) 3,251 7.1 -8.7°
Reaches altitude 10° 05:46:03 10° 213° (SSW) 2,326 6.4 -8.3°
Maximum altitude 05:51:16 62° 293° (WNW) 879 4.1 -7.4°
Drops below altitude 10° 05:56:32 10° 14° (NNE) 2,338 6.5 -6.5°
Sets 05:58:58 0° 18° (NNE) 3,269 7.3 -6.1°
